Regional Weather Roundup
Issued by NWS

Home | Current Version | Previous Version | Text Only | Print | Product List | Glossary Off
Versions: 1 2 3 4 5 6 7 8 9 10 11 12 13 14 15 16 17 18 19 20 21 22 23 24 25 26 27 28 29 30 31 32 33 34 35 36 37 38 39 40 41 42 43 44 45 46 47 48 49 50

000
ASUS43 KMKX 111120
RWRWI

WISCONSIN REGIONAL WEATHER ROUNDUP
NATIONAL WEATHER SERVICE MILWAUKEE/SULLIVAN WI
500 AM CST THU FEB 11 2016

NOTE: "FAIR" INDICATES FEW OR NO CLOUDS BELOW 12,000 FEET WITH NO
SIGNIFICANT WEATHER AND/OR OBSTRUCTIONS TO VISIBILITY.

WIZ001-002-006>008-014>016-023>028-111200-
NORTHWEST WISCONSIN

CITY           SKY/WX    TMP DP  RH WIND       PRES   REMARKS
SUPERIOR ARPT  CLOUDY    -9 -14  79 CALM      30.31S
ASHLAND        CLOUDY     0  -4  83 SW5       30.27R WCI -10
HAYWARD        CLOUDY   -19 -24  77 CALM      30.25R
SIREN          PTCLDY   -15 -21  74 CALM      30.30R
CUMBERLAND     PTCLDY    -9 -15  77 CALM      30.25R
RICE LAKE      PTCLDY   -11 -16  79 CALM      30.29R
CHETEK         PTCLDY   -12 -16  82 CALM      30.28R
LADYSMITH      CLOUDY   -13 -19  77 CALM      30.26R
EAU CLAIRE     PTCLDY    -7 -13  75 CALM      30.28R
MENOMONIE      PTCLDY    -5 -12  71 CALM      30.30R
NEW RICHMOND   CLOUDY    -8 -12  80 SW3       30.29R
OSCEOLA        CLOUDY    -5  -9  84 CALM      30.33R
$$

WIZ003>005-009-010-017-018-111200-
NORTH CENTRAL WISCONSIN

CITY           SKY/WX    TMP DP  RH WIND       PRES   REMARKS
MANITOWISH WTR CLOUDY     0  -3  87 CALM      30.14R
ARBOR VITAE    FLURRIES   3  -1  81 NW3       30.14R
WOODRUFF       FLURRIES   3  -1  81 NW3       30.14R
RHINELANDER    CLOUDY    -1  -6  79 W6        30.14R WCI -13
EAGLE RIVER    CLOUDY     2  -3  79 W3        30.13R
LAND O LAKES   CLOUDY     7   1  76 NW7       30.13R WCI  -5
PHILLIPS       CLOUDY   -12 -16  83 CALM      30.20R
TOMAHAWK       CLOUDY    -3  -6  84 W5        30.18R WCI -13
MEDFORD        CLOUDY   -10 -13  84 CALM      30.19R
MERRILL        CLEAR     -6 -10  83 W5        30.21R WCI -17
$$

WIZ029-030-035-036-043>047-111200-
CENTRAL WISCONSIN

CITY           SKY/WX    TMP DP  RH WIND       PRES   REMARKS
WAUSAU         CLEAR     -2  -7  79 NW6       30.20R WCI -14
MOSINEE        NOT AVBL
MARSHFIELD     CLOUDY    -5 -11  75 W3        30.21R
STEVENS POINT  CLEAR     -3  -8  82 NW3       30.23R
WAUPACA        CLEAR      2  -5  73 W7        30.25R WCI -11
WAUTOMA        CLOUDY    -4  -9  79 NW6       30.26R WCI -16
WISC RAPIDS    CLOUDY    -4 -10  75 NW5       30.26R WCI -15
CAMP DOUGLAS   PTCLDY    -9  -9  97 NW2       30.26R
$$

WIZ011>013-019>022-031-037>040-048>050-111200-
NORTHEAST WISCONSIN

CITY           SKY/WX    TMP DP  RH WIND       PRES   REMARKS
ANTIGO         MOCLDY    -4  -8  85 NW9       30.15R WCI -20
SHAWANO        CLEAR      1  -4  77 W6        30.23R WCI -10
OCONTO         CLEAR      2  -4  77 CALM      30.22R
STURGEON BAY   CLEAR      3  -6  66 NW10      30.20R WCI -12
GREEN BAY      CLEAR     -2  -7  79 W8        30.22R WCI -17
MANITOWOC      CLEAR      3  -4  72 NW9       30.22R WCI -12
APPLETON       CLEAR     -2  -9  71 W13       30.20R WCI -21
CLINTONVILLE   CLEAR      1  -6  71 NW6       30.23R WCI -10
OSHKOSH        CLEAR      0  -8  69 W7        30.23R WCI -13
$$

WIZ032>034-041-042-053>061-111200-
SOUTHWEST WISCONSIN

CITY           SKY/WX    TMP DP  RH WIND       PRES   REMARKS
LA CROSSE      PTCLDY    -3  -8  79 N3        30.31R
SPARTA         PTCLDY   -14 -18  79 CALM      30.29R
VIROQUA        PTCLDY    -1  -5  82 NW3       30.23R
BOSCOBEL       PTCLDY    -4  -9  79 CALM      30.31R
PRAIRIE DU CHI PTCLDY     1  -5  76 CALM      30.31R
PLATTEVILLE    CLEAR      3  -3  74 NW3       30.26R
$$

WIZ056-057-062-063-064-067-068-111200-
SOUTH CENTRAL WISCONSIN

CITY           SKY/WX    TMP DP  RH WIND       PRES   REMARKS
REEDSBURG      PTCLDY    -2  -6  83 W3        30.26R
BARABOO/DELLS  PTCLDY    -4  -8  84 CALM      30.25R
LONE ROCK      PTCLDY    -4  -9  79 W3        30.29R
MINERAL POINT  CLOUDY     3  -4  72 N6        30.22R WCI  -8
MADISON        CLEAR      2  -5  72 NW5       30.25R WCI  -8
MIDDLETON      CLEAR      3  -4  73 CALM      30.25R
WATERTOWN      CLEAR      3  -3  75 NW3       30.23R
MONROE         CLEAR      5   0  78 N6        30.23R WCI  -6
JANESVILLE     CLEAR      9   0  66 NW3       30.24R
$$

WIZ051-052-058>065-066-070>072-111200-
SOUTHEAST WISCONSIN

CITY           SKY/WX    TMP DP  RH WIND       PRES   REMARKS
MILWAUKEE      CLEAR      6  -4  63 NW9       30.22R WCI  -8
WAUKESHA       CLEAR      0  -6  78 W7        30.22R WCI -13
MILWAUKEE/TIMM CLEAR      5  -6  61 NW6       30.24R WCI  -6
RACINE         CLEAR      5  -5  63 W8        30.24R WCI  -8
BURLINGTON     CLEAR      1  -6  75 NW7       30.23R WCI -12
KENOSHA        CLEAR      5  -4  66 NW9       30.22R WCI  -9
FOND DU LAC    CLEAR      2  -6  69 W12       30.23R WCI -15
SHEBOYGAN      CLEAR      2  -6  69 NW9       30.21R WCI -13
WEST BEND      CLEAR      3  -6  66 CALM      30.22R
JUNEAU         PTCLDY     1  -5  76 NW6       30.24R WCI -11
$$

LSZ147-162-111200-
LAKE SUPERIOR

STATION/POSITION TIME  TEMP    WIND        PRES    WAVE
                       AIR SEA DIR/SP/G            HT/PER
                 (UTC) (F)     (DEG/KT/KT) (MB)    (FT/S)
DEVILS ISLAND    1100    8     300/  8/ 15 1026.5R
PORT WING        1000    0     200/  5/ 10 1025.4R
SAXON HARBOR     1040    6                 1024.4R
$$

LMZ867-665-643>646-111200-
LAKE MICHIGAN

STATION/POSITION TIME  TEMP    WIND        PRES    WAVE
                       AIR SEA DIR/SP/G            HT/PER
                 (UTC) (F)     (DEG/KT/KT) (MB)    (FT/S)
CHAMBERS ISLAND  1000    9     300/  8/ 15 1021.3R
ALGOMA LAKESHORE 0941          300/  5/  9   N/A
KEWAUNEE LAKESHO 1000    4                   N/A
SHEBOYGAN LAKESH 1100    5     290/ 13/ 16 1025.2R
PORT WASHINGTON  1000    6     300/  8/ 11 1024.0
MILWAUKEE LAKESH 1010    8     300/  9/ 12   N/A
KENOSHA   LAKESH 1100    7     300/  7/ 10 1023.7R
$$

TC  - TEMPERATURE IN CELSIUS
VSB - VISIBILITY IN STATUTE MILES
WCI - WIND CHILL INDEX
HX  - HEAT INDEX




USA.gov is the U.S. government's official web portal to all federal, state and local government web resources and services.